Cloud_Cover
0 0 0 0 0 0 0 0 0 5 5 50 6 5 4 0 0 0 0 0 0 0 0 0 0 0 0 0 0 0 0 0 5 13 29 28 26 5 4 0 0 0 0 0
0 0 0 0 0 0 0 0 0 5 5 5 77 97 5 5 0 2 4 2 1 0 0 0 0 0 0 0 0 0 0 0 0 5 8 0 2 1 0 0 0 0 0 0
0 0 0 0 0 0 0 0 0 0 5 5 45 7 5 7 5 0 5 5 4 0 0 2 0 0 0 0 0 0 0 0 0 0 16 25 14 9 11 14 6 0 0 0
0 0 0 0 0 0 0 0 0 3 5 5 13 0 28 59 5 2 1 5 3 0 0 0 0 0 0 0 0 0 0 0 0 0 2 2 16 15 1 0 3 0 0 0
0 0 0 0 0 0 0 0 0 4 38 54 15 4 0 74 4 0 0 1 5 3 0 2 0 0 0 0 0 0 0 0 0 0 0 0 8 0 0 0 0 0 0 0
0 0 0 0 0 0 0 0 14 32 79 5 0 0 0 0 0 0 0 0 4 5 0 0 0 0 0 0 0 0 0 0 0 0 0 0 0 0 0 0 0 0 0 0
0 0 0 0 0 0 0 0 16 1 51 5 0 0 0 0 0 0 0 3 2 0 0 0 0 0 0 0 0 0 0 0 0 0 0 0 0 0 0 0 0 0 0 0
0 0 0 0 0 0 0 0 0 5 5 5 5 0 0 0 0 0 4 0 0 0 0 0 0 0 0 0 0 0 0 0 0 0 0 1 0 0 0 0 0 0 1 6
0 0 0 0 0 0 0 0 0 50 9 4 2 0 0 0 0 0 0 1 0 4 2 0 0 0 0 0 0 0 0 0 0 1 0 0 0 0 5 67 2 0 0 4
0 0 0 0 0 0 0 0 0 39 5 0 0 0 0 0 0 0 0 0 0 1 0 0 0 0 0 0 0 0 0 0 3 5 20 98 0 46 95 88 39 0 2 1
0 0 0 0 0 0 0 0 0 1 5 0 0 0 0 0 0 0 1 1 0 0 0 0 0 0 0 0 0 0 0 0 0 2 70 7 100 6 99 9 5 0 13 97
0 0 0 0 0 0 0 0 0 0 0 0 0 0 0 0 0 0 0 4 0 0 0 0 0 0 0 0 0 0 0 0 0 0 95 98 75 95 2 93 12 100 100 41
0 0 0 0 0 0 0 0 0 0 0 0 0 0 0 0 0 0 0 0 0 0 0 0 0 0 0 2 1 0 0 0 0 0 1 73 91 99 52 3 100 100 100 100
0 0 0 0 0 0 0 0 0 0 0 0 0 0 0 0 0 0 0 0 0 0 0 0 0 0 0 1 4 0 0 0 0 0 0 1 6 12 90 94 100 100 100 100
0 0 0 0 0 0 0 0 0 0 0 0 0 0 0 0 0 0 0 0 0 0 0 0 0 0 0 0 0 0 0 0 0 0 0 0 45 96 100 100 100 100 100 100
5 0 0 0 0 0 0 0 0 0 0 0 0 0 0 0 0 0 0 0 0 0 0 0 0 0 0 0 0 0 0 0 0 0 0 0 1 57 90 100 100 100 100 100
2 0 0 0 0 0 0 0 0 0 0 0 0 0 0 0 0 0 0 0 0 0 0 0 0 0 0 0 0 0 0 0 1 0 0 0 47 9 94 93 100 100 100 100
35 21 2 0 0 0 0 0 0 0 0 0 0 0 0 7 3 0 0 0 0 0 0 4 3 0 0 0 0 4 1 5 1 7 0 0 0 0 33 87 100 100 100 100
95 83 34 0 0 0 0 0 0 0 1 4 5 3 2 4 1 0 0 0 3 0 5 92 100 6 0 0 2 4 5 5 12 38 27 8 0 0 51 72 100 100 100 100
98 90 100 56 15 1 0 0 0 51 96 55 10 4 0 4 0 0 0 5 72 5 7 9 56 5 5 5 5 5 5 7 36 44 40 14 0 71 96 65 100 100 100 100
100 100 93 100 94 53 0 0 0 100 30 5 38 62 5 0 1 2 56 99 100 73 91 63 3 0 5 44 64 96 83 64 33 84 14 44 42 95 100 100 100 100 100 100
100 100 100 100 97 90 0 0 59 100 1 64 100 60 38 52 95 46 95 100 56 100 5 5 3 5 94 98 100 65 97 87 39 96 48 60 100 100 100 100 100 100 100 100
100 100 100 19 98 100 8 5 97 100 86 100 93 92 88 67 40 9 49 15 7 1 5 1 3 4 26 84 72 34 100 92 52 4 36 77 100 100 95 75 100 100 100 100
100 100 100 100 100 100 18 5 98 99 4 16 93 83 62 11 20 89 94 58 91 100 98 95 92 92 100 75 84 99 81 18 37 10 7 99 100 100 100 100 100 100 97 100
100 100 100 100 100 100 100 100 100 56 25 5 4 5 5 28 14 86 43 74 100 98 80 72 72 100 100 100 100 100 30 83 23 28 17 100 100 100 100 98 100 100 100 100
100 100 100 100 99 100 98 93 100 100 100 100 100 99 100 100 100 100 100 100 100 78 8 72 90 87 100 100 100 100 100 91 93 3 25 36 28 100 100 100 100 100 100 100